Tracking 27420 objects as of 28-May-2023
HD Live streaming from Space Station
objects crossing your sky now

STARLINK-5946

Track STARLINK-5946 now!
10-day predictions
STARLINK-5946 is classified as:


NORAD ID: 55990
Int'l Code: 2023-042E
Perigee: 559.2 km
Apogee: 561.2 km
Inclination: 43.0 °
Period: 95.7 minutes
Semi major axis: 6931 km
RCS: Unknown
Launch date: March 24, 2022
Source: United States (US)
Launch site: AIR FORCE EASTERN TEST RANGE (AFETR)
Your satellite tracking list
Your tracking list is empty




NASA's NSSDC Master Catalog

Two Line Element Set (TLE):
1 55990U 23042E   23148.20000457  .00000165  00000-0  26188-4 0  9996
2 55990  42.9996 180.3115 0001394 280.1562  79.9124 15.04490259  9997
Source of the keplerian elements: AFSPC